sat.trackr.live / text

‹ back to catalog

TJS-24

NORAD 69235 · 2026-116A

PAYLOAD ACTIVE UNKNOWN

§ Identity

Operator
Country
PRC
Launch date
2026-05-26
Launch site
WSC
Launch vehicle
Mass (kg)
RCS (m²)

Purposes: comms

External: N2YO · Heavens-Above · Gunter

§ Orbital elements

Epoch: 2026-09-19T23:21:45.584064Z

Period
1,436.06 min
Inclination
0.2463°
Eccentricity
0.0001154
Mean motion
1.00274148 rev/d
Perigee alt
35,781.1 km
Apogee alt
35,790.8 km
Semi-major
42,164.1 km
B*
0.0000e+0
RAAN
88.4530°
Arg perigee
174.0234°
Mean anomaly
177.1578°
Rev number
117

§ Raw data

TJS-241 69235U 26116A   26262.97344426 -.00000236  00000+0  00000+0 0  99982 69235   0.2463  88.4530 0001154 174.0234 177.1578  1.00274148  1174

JSON: /api/v1/satellites/69235 · /tle

For live sub-satellite position, see the globe view (requires WebGL).

§ Visibility from observer

Set your observer location to see the next 7 days of passes ≥ 10°. The values pass through the URL so the page stays shareable.

No JS? Fill the form by hand. The geolocation button needs JavaScript.